Le nostre stazioni meteo in Italia

Pubblicità
Il mio iltempo24.it
Frosinone, Italia (16244): Temperatura & dewpoint: 14.01.2018 06:00:00 - 20.01.2018 06:00:00 (CET)Frosinone, Italia (16244): velocità del vento: 14.01.2018 06:00:00 - 20.01.2018 06:00:00 (CET)Frosinone, Italia (16244): direzione del vento: 14.01.2018 06:00:00 - 20.01.2018 06:00:00 (CET)Frosinone, Italia (16244): reduced air pressure: 14.01.2018 06:00:00 - 20.01.2018 06:00:00 (CET)Frosinone, Italia (16244): visibility: 14.01.2018 06:00:00 - 20.01.2018 06:00:00 (CET)
Data & Tempo tt [°C] td [°C] ff [km/h] ff [kn] dd ppp [hPa] vv [km]
20.01.2018 06:00:00 - - - - - - -
20.01.2018 05:00:00 - - - - - - -
20.01.2018 04:00:00 - - - - - - -
20.01.2018 03:00:00 - - - - - - -
20.01.2018 02:00:00 - - - - - - -
20.01.2018 01:00:00 - - - - - - -
20.01.2018 00:00:00 - - - - - - -
19.01.2018 23:00:00 - - - - - - -
19.01.2018 22:00:00 - - - - - - -
19.01.2018 21:00:00 - - - - - - -
19.01.2018 20:00:00 - - - - - - -
19.01.2018 19:00:00 9,8 7,4 4 2 S 1013,8 3,0
19.01.2018 18:00:00 10,0 7,0 8 4 ENE - 3,0
19.01.2018 17:00:00 10,0 7,0 8 4 E - 3,0
19.01.2018 16:00:00 10,6 7,8 5 3 E 1014,1 3,0
19.01.2018 15:00:00 10,0 8,0 4 2 E - 2,5
19.01.2018 14:00:00 10,0 7,0 5 3 ENE - 1,8
19.01.2018 13:00:00 9,4 6,8 0 0 N 1015,5 1,2
19.01.2018 12:00:00 9,0 7,0 5 3 SSO - 1,5
19.01.2018 11:00:00 9,0 6,0 4 2 N - 1,5
19.01.2018 10:00:00 8,2 5,7 5 3 S 1015,8 0,8
19.01.2018 09:00:00 8,0 5,0 4 2 O - 0,8
19.01.2018 08:00:00 8,0 5,0 4 2 SSE - 0,6
19.01.2018 07:00:00 8,0 5,5 4 2 SSE 1016,7 0,9
19.01.2018 06:00:00 8,0 6,0 4 2 NNE - 0,9
19.01.2018 05:00:00 - - - - - - -
19.01.2018 04:00:00 - - - - - - -
19.01.2018 03:00:00 - - - - - - -
19.01.2018 02:00:00 - - - - - - -
19.01.2018 01:00:00 - - - - - - -
19.01.2018 00:00:00 - - - - - - -
18.01.2018 23:00:00 - - - - - - -
18.01.2018 22:00:00 - - - - - - -
18.01.2018 21:00:00 - - - - - - -
18.01.2018 20:00:00 - - - - - - -
18.01.2018 19:00:00 10,0 5,8 8 4 ESE 1019,4 13
18.01.2018 18:00:00 9,0 -2,0 4 2 E - 10
18.01.2018 17:00:00 11,0 -3,0 4 2 SSE - 10
18.01.2018 16:00:00 12,0 -3,8 4 2 S 1019,3 13
18.01.2018 15:00:00 13,0 -4,0 4 2 NNO - 10
18.01.2018 14:00:00 12,0 -8,0 4 2 O - 10
18.01.2018 13:00:00 11,2 -8,1 4 2 SSE 1020,4 13
18.01.2018 12:00:00 9,0 -8,0 9 5 NNE - 10
18.01.2018 11:00:00 8,0 -4,0 5 3 S - 10
18.01.2018 10:00:00 5,0 -2,6 4 2 NE 1022,3 13
18.01.2018 09:00:00 3,0 -3,0 9 5 ENE - 10
18.01.2018 08:00:00 -1,0 -4,0 4 2 S - 10
18.01.2018 07:00:00 1,6 -5,3 5 3 SE 1020,0 13
18.01.2018 06:00:00 5,0 -8,0 13 7 ONO - 10
18.01.2018 05:00:00 - - - - - - -
18.01.2018 04:00:00 - - - - - - -
18.01.2018 03:00:00 - - - - - - -
18.01.2018 02:00:00 - - - - - - -
18.01.2018 01:00:00 - - - - - - -
18.01.2018 00:00:00 - - - - - - -
17.01.2018 23:00:00 - - - - - - -
17.01.2018 22:00:00 - - - - - - -
17.01.2018 21:00:00 - - - - - - -
17.01.2018 20:00:00 - - - - - - -
17.01.2018 19:00:00 9,2 0,9 18 10 ONO 1008,4 13
17.01.2018 18:00:00 11,0 1,0 18 10 O - 10
17.01.2018 17:00:00 11,0 1,0 15 8 O - 10
17.01.2018 16:00:00 12,2 1,5 18 10 O 1003,6 8
17.01.2018 15:00:00 13,0 4,0 26 14 ONO - 6
17.01.2018 14:00:00 12,0 5,0 29 16 ONO - 6
17.01.2018 13:00:00 11,0 7,7 37 20 O 1002,6 5
17.01.2018 12:00:00 14,0 9,0 18 10 O - 6
17.01.2018 11:00:00 14,0 8,0 18 10 ONO - 6
17.01.2018 10:00:00 13,0 8,7 21 11 ONO 1004,9 6
17.01.2018 09:00:00 13,0 9,0 18 10 ONO - 5
17.01.2018 08:00:00 12,0 9,0 9 5 ONO - 2,0
17.01.2018 07:00:00 10,0 7,4 18 10 O 1006,9 1,5
17.01.2018 06:00:00 9,0 7,0 0 0 N - 1,5
17.01.2018 05:00:00 - - - - - - -
17.01.2018 04:00:00 - - - - - - -
17.01.2018 03:00:00 - - - - - - -
17.01.2018 02:00:00 - - - - - - -
17.01.2018 01:00:00 - - - - - - -
17.01.2018 00:00:00 - - - - - - -
16.01.2018 23:00:00 - - - - - - -
16.01.2018 22:00:00 - - - - - - -
16.01.2018 21:00:00 - - - - - - -
16.01.2018 20:00:00 - - - - - - -
16.01.2018 19:00:00 - - - - - - -
16.01.2018 18:00:00 - - - - - - -
16.01.2018 17:00:00 10,0 8,0 11 6 E - 3,0
16.01.2018 16:00:00 10,0 7,6 11 6 ENE 1014,6 3,0
16.01.2018 15:00:00 10,0 7,0 9 5 E - 2,0
16.01.2018 14:00:00 9,0 6,0 9 5 ENE - 2,6
16.01.2018 13:00:00 8,8 6,1 5 3 NE 1016,8 1,4
16.01.2018 12:00:00 8,0 5,0 4 2 ESE - 1,2
16.01.2018 11:00:00 7,0 5,0 4 2 N - 1,2
16.01.2018 10:00:00 7,0 4,7 8 4 SSE 1018,7 1,2
16.01.2018 09:00:00 7,0 4,0 5 3 N - 1,2
16.01.2018 08:00:00 6,0 4,0 5 3 N - 0,8
16.01.2018 07:00:00 6,2 3,7 8 4 NE 1019,1 3,0
16.01.2018 06:00:00 6,0 4,0 4 2 SSO - 1,4
16.01.2018 05:00:00 - - - - - - -
16.01.2018 04:00:00 - - - - - - -
16.01.2018 03:00:00 - - - - - - -
16.01.2018 02:00:00 - - - - - - -
16.01.2018 01:00:00 - - - - - - -
16.01.2018 00:00:00 - - - - - - -
15.01.2018 23:00:00 - - - - - - -
15.01.2018 22:00:00 - - - - - - -
15.01.2018 21:00:00 - - - - - - -
15.01.2018 20:00:00 - - - - - - -
15.01.2018 19:00:00 8,4 6,2 4 2 ENE 1021,5 13
15.01.2018 18:00:00 9,0 7,0 4 2 O - 10
15.01.2018 17:00:00 11,0 3,0 4 2 SSO - 10
15.01.2018 16:00:00 12,4 3,6 5 3 S 1021,4 13
15.01.2018 15:00:00 12,0 5,0 2 1 SO - 10
15.01.2018 14:00:00 12,0 5,0 4 2 SO - 8
15.01.2018 13:00:00 12,8 5,0 5 3 S 1023,2 6
15.01.2018 12:00:00 11,0 4,0 4 2 SE - 6
15.01.2018 11:00:00 9,0 6,0 4 2 ESE - 4,0
15.01.2018 10:00:00 6,6 4,2 4 2 SO 1023,8 2,5
15.01.2018 09:00:00 5,0 3,0 4 2 OSO - 2,0
15.01.2018 08:00:00 5,0 3,0 4 2 NNO - 2,0
15.01.2018 07:00:00 5,8 3,5 4 2 ONO 1022,5 2,0
15.01.2018 06:00:00 6,0 3,0 5 3 NNE - 2,0
15.01.2018 05:00:00 - - - - - - -
15.01.2018 04:00:00 - - - - - - -
15.01.2018 03:00:00 - - - - - - -
15.01.2018 02:00:00 - - - - - - -
15.01.2018 01:00:00 - - - - - - -
15.01.2018 00:00:00 - - - - - - -
14.01.2018 23:00:00 - - - - - - -
14.01.2018 22:00:00 - - - - - - -
14.01.2018 21:00:00 - - - - - - -
14.01.2018 20:00:00 - - - - - - -
14.01.2018 19:00:00 - - - - - - -
14.01.2018 18:00:00 - - - - - - -
14.01.2018 17:00:00 - - - - - - -
14.01.2018 16:00:00 - - - - - - -
14.01.2018 15:00:00 - - - - - - -
14.01.2018 14:00:00 - - - - - - -
14.01.2018 13:00:00 - - - - - - -
14.01.2018 12:00:00 - - - - - - -
14.01.2018 11:00:00 - - - - - - -
14.01.2018 10:00:00 - - - - - - -
14.01.2018 09:00:00 - - - - - - -
14.01.2018 08:00:00 - - - - - - -
14.01.2018 07:00:00 - - - - - - -
14.01.2018 06:00:00 - - - - - - -

tt = Temperatura
td = dewpoint
ff = velocità del vento
dd = direzione del vento
ppp = reduced air pressure
vv = visibility

Stazioni seguenti

WeatherPro
AMSI
MeteoEarth